Year,Month,Day,Hour,Minute,Value (Times are PST for temperature in C)
2015,11,18,13,10,-0.40
2015,11,18,13,13,-0.40
2015,11,18,13,14,-0.40
2015,11,18,13,15,-0.40
2015,11,18,13,16,-0.40
2015,11,18,13,17,-0.40
2015,11,18,13,18,-0.40
2015,11,18,13,19,-0.40
2015,11,18,13,20,-0.40
2015,11,18,13,21,-0.60
2015,11,18,13,22,-0.60
2015,11,18,13,23,-0.60
2015,11,18,13,24,-0.60
2015,11,18,13,25,-0.60
2015,11,18,13,26,-0.60
2015,11,18,13,27,-0.60
2015,11,18,13,28,-0.60
2015,11,18,13,29,-0.60
2015,11,18,13,30,-0.60
2015,11,18,13,31,-0.60
2015,11,18,13,32,-0.60
2015,11,18,13,33,-0.90
2015,11,18,13,34,-0.90
2015,11,18,13,35,-0.90
2015,11,18,13,36,-0.90
2015,11,18,13,37,-0.90
2015,11,18,13,38,-0.90
2015,11,18,13,39,-0.90
2015,11,18,13,40,-0.90
2015,11,18,13,41,-0.80
2015,11,18,13,42,-0.80
2015,11,18,13,43,-0.80
2015,11,18,13,44,-0.80
2015,11,18,13,45,-0.80
2015,11,18,13,46,-0.80
2015,11,18,13,47,-0.80
2015,11,18,13,48,-0.80
2015,11,18,13,49,-0.80
2015,11,18,13,50,-0.80
2015,11,18,13,51,-0.80
2015,11,18,13,52,-0.80
2015,11,18,13,53,-0.80
2015,11,18,13,54,-0.80
2015,11,18,13,55,-0.80
2015,11,18,13,56,-0.80
2015,11,18,13,57,-0.80
2015,11,18,13,58,-0.80
2015,11,18,13,59,-0.80
2015,11,18,14,00,-0.80
2015,11,18,14,01,-0.60
2015,11,18,14,02,-0.60
2015,11,18,14,03,-0.60
2015,11,18,14,04,-0.60
2015,11,18,14,05,-0.60
2015,11,18,14,06,-0.60
2015,11,18,14,07,-0.60
2015,11,18,14,08,-0.60
2015,11,18,14,09,-0.60
2015,11,18,14,10,-0.60
2015,11,18,14,11,-0.30
2015,11,18,14,12,-0.30
2015,11,18,14,13,-0.30
2015,11,18,14,14,-0.30
2015,11,18,14,15,-0.30
2015,11,18,14,16,-0.30
2015,11,18,14,17,-0.30
2015,11,18,14,18,-0.30
2015,11,18,14,19,-0.30
2015,11,18,14,20,-0.30
2015,11,18,14,21,-0.30
2015,11,18,14,22,-0.60
2015,11,18,14,23,-0.60
2015,11,18,14,24,-0.60
2015,11,18,14,25,-0.60
2015,11,18,14,26,-0.60
2015,11,18,14,27,-0.60
2015,11,18,14,28,-0.60
2015,11,18,14,29,-0.60
2015,11,18,14,30,-0.60
2015,11,18,14,31,-0.60
2015,11,18,14,32,-0.60
2015,11,18,14,33,-0.60
2015,11,18,14,34,-0.60
2015,11,18,14,35,-0.60
2015,11,18,14,36,-0.60
2015,11,18,14,37,-0.60
2015,11,18,14,38,-0.60
2015,11,18,14,39,-0.60
2015,11,18,14,40,-0.60
2015,11,18,14,41,-0.60
2015,11,18,14,42,-0.50
2015,11,18,14,43,-0.50
2015,11,18,14,44,-0.50
2015,11,18,14,45,-0.50
2015,11,18,14,46,-0.50
2015,11,18,14,47,-0.50
2015,11,18,14,48,-0.50
2015,11,18,14,49,-0.50
2015,11,18,14,50,-0.50
2015,11,18,14,51,-0.70
2015,11,18,14,52,-0.70
2015,11,18,14,53,-0.70
2015,11,18,14,54,-0.70
2015,11,18,14,55,-0.70
2015,11,18,14,56,-0.70
2015,11,18,14,57,-0.70
2015,11,18,14,58,-0.70
2015,11,18,14,59,-0.70
2015,11,18,15,00,-0.70
2015,11,18,15,01,-1.20
2015,11,18,15,02,-1.20
2015,11,18,15,03,-1.20
2015,11,18,15,04,-1.20
2015,11,18,15,05,-1.20
2015,11,18,15,06,-1.20
2015,11,18,15,07,-1.20
2015,11,18,15,08,-1.20
2015,11,18,15,09,-1.20
2015,11,18,15,10,-1.20
2015,11,18,15,11,-1.20
2015,11,18,15,12,-1.20
2015,11,18,15,13,-1.20
2015,11,18,15,14,-1.20
2015,11,18,15,15,-1.20
2015,11,18,15,16,-1.20
2015,11,18,15,17,-1.20
2015,11,18,15,18,-1.20
2015,11,18,15,19,-1.20
2015,11,18,15,20,-1.20
2015,11,18,15,21,-1.20
2015,11,18,15,22,-1.40
2015,11,18,15,23,-1.40
2015,11,18,15,24,-1.40
2015,11,18,15,25,-1.40
2015,11,18,15,26,-1.40
2015,11,18,15,27,-1.40
2015,11,18,15,28,-1.40
2015,11,18,15,29,-1.40
2015,11,18,15,30,-1.40
2015,11,18,15,31,-1.40
2015,11,18,15,32,-1.40
2015,11,18,15,33,-1.40
2015,11,18,15,34,-1.40
2015,11,18,15,35,-1.40
2015,11,18,15,36,-1.40
2015,11,18,15,37,-1.40
2015,11,18,15,38,-1.40
2015,11,18,15,39,-1.40
2015,11,18,15,40,-1.40
2015,11,18,15,41,-1.40
2015,11,18,15,42,-1.40
2015,11,18,15,43,-1.60
2015,11,18,15,44,-1.60
2015,11,18,15,45,-1.60
2015,11,18,15,46,-1.60
2015,11,18,15,47,-1.60
2015,11,18,15,48,-1.60
2015,11,18,15,49,-1.60
2015,11,18,15,50,-1.60
2015,11,18,15,51,-1.60
2015,11,18,15,52,-1.60
2015,11,18,15,53,-1.60
2015,11,18,15,54,-1.60
2015,11,18,15,55,-1.60
2015,11,18,15,56,-1.60
2015,11,18,15,57,-1.60
2015,11,18,15,58,-1.60
2015,11,18,15,59,-1.60
2015,11,18,16,00,-1.60
2015,11,18,16,01,-1.60
2015,11,18,16,02,-1.70
2015,11,18,16,03,-1.70
2015,11,18,16,04,-1.70
2015,11,18,16,05,-1.70
2015,11,18,16,06,-1.70
2015,11,18,16,07,-1.70
2015,11,18,16,08,-1.70
2015,11,18,16,09,-1.70
2015,11,18,16,10,-1.70
2015,11,18,16,11,-1.70
2015,11,18,16,12,-1.70
2015,11,18,16,13,-1.70
2015,11,18,16,14,-1.70
2015,11,18,16,15,-1.70
2015,11,18,16,16,-1.70
2015,11,18,16,17,-1.70
2015,11,18,16,18,-1.70
2015,11,18,16,19,-1.70
2015,11,18,16,20,-1.70
2015,11,18,16,21,-1.70
2015,11,18,16,22,-1.70
2015,11,18,16,23,-1.70
2015,11,18,16,24,-1.70
2015,11,18,16,25,-1.70
2015,11,18,16,26,-1.70
2015,11,18,16,27,-1.70
2015,11,18,16,28,-1.70
2015,11,18,16,29,-1.70
2015,11,18,16,30,-1.70
2015,11,18,16,31,-1.70
2015,11,18,16,32,-1.80
2015,11,18,16,33,-1.80
2015,11,18,16,34,-1.80
2015,11,18,16,35,-1.80
2015,11,18,16,36,-1.80
2015,11,18,16,37,-1.80
2015,11,18,16,38,-1.80
2015,11,18,16,39,-1.80
2015,11,18,16,40,-1.80
2015,11,18,16,41,-1.80
2015,11,18,16,42,-2.00
2015,11,18,16,43,-2.00
2015,11,18,16,44,-2.00
2015,11,18,16,45,-2.00
2015,11,18,16,46,-2.00
2015,11,18,16,47,-2.00
2015,11,18,16,48,-2.00
2015,11,18,16,49,-2.00
2015,11,18,16,50,-2.00
2015,11,18,16,51,-2.00
2015,11,18,16,52,-2.10
2015,11,18,16,53,-2.10
2015,11,18,16,54,-2.10
2015,11,18,16,55,-2.10
2015,11,18,16,56,-2.10
2015,11,18,16,57,-2.10
2015,11,18,16,58,-2.10
2015,11,18,16,59,-2.10
2015,11,18,17,00,-2.10
2015,11,18,17,01,-2.10
2015,11,18,17,02,-2.20
2015,11,18,17,03,-2.20
2015,11,18,17,04,-2.20
2015,11,18,17,05,-2.20
2015,11,18,17,06,-2.20
2015,11,18,17,07,-2.20
2015,11,18,17,08,-2.20
2015,11,18,17,09,-2.20
2015,11,18,17,10,-2.20
2015,11,18,17,11,-2.20
2015,11,18,17,12,-2.20
2015,11,18,17,13,-2.20
2015,11,18,17,14,-2.20
2015,11,18,17,15,-2.20
2015,11,18,17,16,-2.20
2015,11,18,17,17,-2.20
2015,11,18,17,18,-2.20
2015,11,18,17,19,-2.20
2015,11,18,17,20,-2.20
2015,11,18,17,21,-2.20
2015,11,18,17,22,-2.20
2015,11,18,17,23,-2.20
2015,11,18,17,24,-2.20
2015,11,18,17,25,-2.20
2015,11,18,17,26,-2.20
2015,11,18,17,27,-2.20
2015,11,18,17,28,-2.20
2015,11,18,17,29,-2.20
2015,11,18,17,30,-2.20
2015,11,18,17,31,-2.20
2015,11,18,17,32,-2.20
2015,11,18,17,33,-2.10
2015,11,18,17,34,-2.10
2015,11,18,17,35,-2.10
2015,11,18,17,36,-2.10
2015,11,18,17,37,-2.10
2015,11,18,17,38,-2.10
2015,11,18,17,39,-2.10
2015,11,18,17,40,-2.10
2015,11,18,17,41,-2.10
2015,11,18,17,42,-2.20
2015,11,18,17,43,-2.20
2015,11,18,17,44,-2.20
2015,11,18,17,45,-2.20
2015,11,18,17,46,-2.20
2015,11,18,17,47,-2.20
2015,11,18,17,48,-2.20
2015,11,18,17,49,-2.20
2015,11,18,17,50,-2.20
2015,11,18,17,51,-2.20
2015,11,18,17,52,-2.20
2015,11,18,17,53,-2.20
2015,11,18,17,54,-2.20
2015,11,18,17,55,-2.20
2015,11,18,17,56,-2.20
2015,11,18,17,57,-2.20
2015,11,18,17,58,-2.20
2015,11,18,17,59,-2.20
2015,11,18,18,00,-2.20
2015,11,18,18,01,-2.20
2015,11,18,18,02,-2.20
2015,11,18,18,03,-2.30
2015,11,18,18,04,-2.30
2015,11,18,18,05,-2.30
2015,11,18,18,06,-2.30
2015,11,18,18,07,-2.30
2015,11,18,18,08,-2.30
2015,11,18,18,09,-2.30
2015,11,18,18,10,-2.30
2015,11,18,18,11,-2.30
2015,11,18,18,12,-2.30
2015,11,18,18,13,-2.30
2015,11,18,18,14,-2.30
2015,11,18,18,15,-2.30
2015,11,18,18,16,-2.30
2015,11,18,18,17,-2.30
2015,11,18,18,18,-2.30
2015,11,18,18,19,-2.30
2015,11,18,18,20,-2.30
2015,11,18,18,21,-2.30
2015,11,18,18,22,-2.30
2015,11,18,18,23,-2.30
2015,11,18,18,24,-2.30
2015,11,18,18,25,-2.30
2015,11,18,18,26,-2.30
2015,11,18,18,27,-2.30
2015,11,18,18,28,-2.30
2015,11,18,18,29,-2.30
2015,11,18,18,30,-2.30
2015,11,18,18,31,-2.40
2015,11,18,18,32,-2.40
2015,11,18,18,33,-2.40
2015,11,18,18,34,-2.40
2015,11,18,18,35,-2.40
2015,11,18,18,36,-2.40
2015,11,18,18,37,-2.40
2015,11,18,18,38,-2.40
2015,11,18,18,39,-2.40
2015,11,18,18,40,-2.40
2015,11,18,18,41,-2.40
2015,11,18,18,42,-2.40
2015,11,18,18,43,-2.40
2015,11,18,18,44,-2.40
2015,11,18,18,45,-2.40
2015,11,18,18,46,-2.40
2015,11,18,18,47,-2.40
2015,11,18,18,48,-2.40
2015,11,18,18,49,-2.40
2015,11,18,18,50,-2.40
2015,11,18,18,51,-2.40
2015,11,18,18,52,-2.60
2015,11,18,18,53,-2.60
2015,11,18,18,54,-2.60
2015,11,18,18,55,-2.60
2015,11,18,18,56,-2.60
2015,11,18,18,57,-2.60
2015,11,18,18,58,-2.60
2015,11,18,18,59,-2.60
2015,11,18,19,00,-2.60
2015,11,18,19,01,-2.60
2015,11,18,19,02,-2.60
2015,11,18,19,03,-2.60
2015,11,18,19,04,-2.60
2015,11,18,19,05,-2.60
2015,11,18,19,06,-2.60
2015,11,18,19,07,-2.60
2015,11,18,19,08,-2.60
2015,11,18,19,09,-2.60
2015,11,18,19,10,-2.60
2015,11,18,19,11,-2.60
2015,11,18,19,12,-2.70
2015,11,18,19,13,-2.70
2015,11,18,19,14,-2.70
2015,11,18,19,15,-2.70
2015,11,18,19,16,-2.70
2015,11,18,19,17,-2.70
2015,11,18,19,18,-2.70
2015,11,18,19,19,-2.70
2015,11,18,19,20,-2.70
2015,11,18,19,21,-2.70
2015,11,18,19,22,-2.50
2015,11,18,19,23,-2.50
2015,11,18,19,24,-2.50
2015,11,18,19,25,-2.50
2015,11,18,19,26,-2.50
2015,11,18,19,27,-2.50
2015,11,18,19,28,-2.50
2015,11,18,19,29,-2.50
2015,11,18,19,30,-2.50
2015,11,18,19,31,-2.50
2015,11,18,19,32,-2.60
2015,11,18,19,33,-2.60
2015,11,18,19,34,-2.60
2015,11,18,19,35,-2.60
2015,11,18,19,36,-2.60
2015,11,18,19,37,-2.60
2015,11,18,19,38,-2.60
2015,11,18,19,39,-2.60
2015,11,18,19,40,-2.60
2015,11,18,19,41,-2.60
2015,11,18,19,42,-2.70
2015,11,18,19,43,-2.70
2015,11,18,19,44,-2.70
2015,11,18,19,45,-2.70
2015,11,18,19,46,-2.70
2015,11,18,19,47,-2.70
2015,11,18,19,48,-2.70
2015,11,18,19,49,-2.70
2015,11,18,19,50,-2.70
2015,11,18,19,51,-2.70
2015,11,18,19,52,-2.70
2015,11,18,19,53,-2.70
2015,11,18,19,54,-2.70
2015,11,18,19,55,-2.70
2015,11,18,19,56,-2.70
2015,11,18,19,57,-2.70
2015,11,18,19,58,-2.70
2015,11,18,19,59,-2.70
2015,11,18,20,00,-2.70
2015,11,18,20,01,-2.80
2015,11,18,20,02,-2.80
2015,11,18,20,03,-2.80
2015,11,18,20,04,-2.80
2015,11,18,20,05,-2.80
2015,11,18,20,06,-2.80
2015,11,18,20,07,-2.80
2015,11,18,20,08,-2.80
2015,11,18,20,09,-2.80
2015,11,18,20,10,-2.80
2015,11,18,20,11,-2.90
2015,11,18,20,12,-2.90
2015,11,18,20,13,-2.90
2015,11,18,20,14,-2.90
2015,11,18,20,15,-2.90
2015,11,18,20,16,-2.90
2015,11,18,20,17,-2.90
2015,11,18,20,18,-2.90
2015,11,18,20,19,-2.90
2015,11,18,20,20,-2.90
2015,11,18,20,21,-2.90
2015,11,18,20,22,-3.10
2015,11,18,20,23,-3.10
2015,11,18,20,24,-3.10
2015,11,18,20,25,-3.10
2015,11,18,20,26,-3.10
2015,11,18,20,27,-3.10
2015,11,18,20,28,-3.10
2015,11,18,20,29,-3.10
2015,11,18,20,30,-3.10
2015,11,18,20,31,-3.10
2015,11,18,20,32,-3.20
2015,11,18,20,33,-3.20
2015,11,18,20,34,-3.20
2015,11,18,20,35,-3.20
2015,11,18,20,36,-3.20
2015,11,18,20,37,-3.20
2015,11,18,20,38,-3.20
2015,11,18,20,39,-3.20
2015,11,18,20,40,-3.20
2015,11,18,20,41,-3.20
2015,11,18,20,42,-3.30
2015,11,18,20,43,-3.30
2015,11,18,20,44,-3.30
2015,11,18,20,45,-3.30
2015,11,18,20,46,-3.30
2015,11,18,20,47,-3.30
2015,11,18,20,48,-3.30
2015,11,18,20,49,-3.30
2015,11,18,20,50,-3.30
2015,11,18,20,51,-3.30
2015,11,18,20,52,-3.30
2015,11,18,20,53,-3.30
2015,11,18,20,54,-3.30
2015,11,18,20,55,-3.30
2015,11,18,20,56,-3.30
2015,11,18,20,57,-3.30
2015,11,18,20,58,-3.30
2015,11,18,20,59,-3.30
2015,11,18,21,00,-3.30
2015,11,18,21,01,-3.10
2015,11,18,21,02,-3.10
2015,11,18,21,03,-3.10
2015,11,18,21,04,-3.10
2015,11,18,21,05,-3.10
2015,11,18,21,06,-3.10
2015,11,18,21,07,-3.10
2015,11,18,21,08,-3.10
2015,11,18,21,09,-3.10
2015,11,18,21,10,-3.10
2015,11,18,21,11,-3.10
2015,11,18,21,12,-3.20
2015,11,18,21,13,-3.20
2015,11,18,21,14,-3.20
2015,11,18,21,15,-3.20
2015,11,18,21,16,-3.20
2015,11,18,21,17,-3.20
2015,11,18,21,18,-3.20
2015,11,18,21,19,-3.20
2015,11,18,21,20,-3.20
2015,11,18,21,21,-3.20
2015,11,18,21,22,-3.20
2015,11,18,21,23,-3.20
2015,11,18,21,24,-3.20
2015,11,18,21,25,-3.20
2015,11,18,21,26,-3.20
2015,11,18,21,27,-3.20
2015,11,18,21,28,-3.20
2015,11,18,21,29,-3.20
2015,11,18,21,30,-3.20
2015,11,18,21,31,-3.20
2015,11,18,21,32,-3.20
2015,11,18,21,33,-3.30
2015,11,18,21,34,-3.30
2015,11,18,21,35,-3.30
2015,11,18,21,36,-3.30
2015,11,18,21,37,-3.30
2015,11,18,21,38,-3.30
2015,11,18,21,39,-3.30
2015,11,18,21,40,-3.30
2015,11,18,21,41,-3.70
2015,11,18,21,42,-3.70
2015,11,18,21,43,-3.70
2015,11,18,21,44,-3.70
2015,11,18,21,45,-3.70
2015,11,18,21,46,-3.70
2015,11,18,21,47,-3.70
2015,11,18,21,48,-3.70
2015,11,18,21,49,-3.70
2015,11,18,21,50,-3.70
2015,11,18,21,51,-3.70
2015,11,18,21,52,-3.70
2015,11,18,21,53,-3.70
2015,11,18,21,54,-3.70
2015,11,18,21,55,-3.70
2015,11,18,21,56,-3.70
2015,11,18,21,57,-3.70
2015,11,18,21,58,-3.70
2015,11,18,21,59,-3.70
2015,11,18,22,00,-3.70
2015,11,18,22,01,-3.70
2015,11,18,22,02,-3.70
2015,11,18,22,03,-3.70
2015,11,18,22,04,-3.60
2015,11,18,22,05,-3.60
2015,11,18,22,06,-3.60
2015,11,18,22,07,-3.60
2015,11,18,22,08,-3.60
2015,11,18,22,09,-3.60
2015,11,18,22,10,-3.60
2015,11,18,22,11,-3.80
2015,11,18,22,12,-3.80
2015,11,18,22,13,-3.80
2015,11,18,22,14,-3.80
2015,11,18,22,15,-3.80
2015,11,18,22,16,-3.80
2015,11,18,22,17,-3.80
2015,11,18,22,18,-3.80
2015,11,18,22,19,-3.80
2015,11,18,22,20,-3.80
2015,11,18,22,21,-3.90
2015,11,18,22,22,-3.90
2015,11,18,22,23,-3.90
2015,11,18,22,24,-3.90
2015,11,18,22,25,-3.90
2015,11,18,22,26,-3.90
2015,11,18,22,27,-3.90
2015,11,18,22,28,-3.90
2015,11,18,22,29,-3.90
2015,11,18,22,30,-3.90
2015,11,18,22,31,-3.90
2015,11,18,22,32,-3.90
2015,11,18,22,33,-3.80
2015,11,18,22,34,-3.80
2015,11,18,22,35,-3.80
2015,11,18,22,36,-3.80
2015,11,18,22,37,-3.80
2015,11,18,22,38,-3.80
2015,11,18,22,39,-3.80
2015,11,18,22,40,-3.80
2015,11,18,22,41,-3.70
2015,11,18,22,42,-3.70
2015,11,18,22,43,-3.70
2015,11,18,22,44,-3.70
2015,11,18,22,45,-3.70
2015,11,18,22,46,-3.70
2015,11,18,22,47,-3.70
2015,11,18,22,48,-3.70
2015,11,18,22,49,-3.70
2015,11,18,22,50,-3.70
2015,11,18,22,51,-3.70
2015,11,18,22,52,-3.40
2015,11,18,22,53,-3.40
2015,11,18,22,54,-3.40
2015,11,18,22,55,-3.40
2015,11,18,22,56,-3.40
2015,11,18,22,57,-3.40
2015,11,18,22,58,-3.40
2015,11,18,22,59,-3.40
2015,11,18,23,00,-3.40
2015,11,18,23,01,-3.40
2015,11,18,23,02,-3.90
2015,11,18,23,03,-3.90
2015,11,18,23,04,-3.90
2015,11,18,23,05,-3.90
2015,11,18,23,06,-3.90
2015,11,18,23,07,-3.90
2015,11,18,23,08,-3.90
2015,11,18,23,09,-3.90
2015,11,18,23,10,-3.90
2015,11,18,23,11,-3.90
2015,11,18,23,12,-3.90
2015,11,18,23,13,-4.10
2015,11,18,23,14,-4.10
2015,11,18,23,15,-4.10
2015,11,18,23,16,-4.10
2015,11,18,23,17,-4.10
2015,11,18,23,18,-4.10
2015,11,18,23,19,-4.10
2015,11,18,23,20,-4.10
2015,11,18,23,21,-4.10
2015,11,18,23,22,-4.20
2015,11,18,23,23,-4.20
2015,11,18,23,24,-4.20
2015,11,18,23,25,-4.20
2015,11,18,23,26,-4.20
2015,11,18,23,27,-4.20
2015,11,18,23,28,-4.20
2015,11,18,23,29,-4.20
2015,11,18,23,30,-4.20
2015,11,18,23,31,-4.20
2015,11,18,23,32,-4.20
2015,11,18,23,33,-4.20
2015,11,18,23,34,-4.20
2015,11,18,23,35,-4.20
2015,11,18,23,36,-4.20
2015,11,18,23,37,-4.20
2015,11,18,23,38,-4.20
2015,11,18,23,39,-4.20
2015,11,18,23,40,-4.20
2015,11,18,23,41,-4.20
2015,11,18,23,42,-4.20
2015,11,18,23,43,-4.20
2015,11,18,23,44,-4.20
2015,11,18,23,45,-4.20
2015,11,18,23,46,-4.20
2015,11,18,23,47,-4.20
2015,11,18,23,48,-4.20
2015,11,18,23,49,-4.20
2015,11,18,23,50,-4.20
2015,11,18,23,51,-4.20
2015,11,18,23,52,-4.30
2015,11,18,23,53,-4.30
2015,11,18,23,54,-4.30
2015,11,18,23,55,-4.30
2015,11,18,23,56,-4.30
2015,11,18,23,57,-4.30
2015,11,18,23,58,-4.30
2015,11,18,23,59,-4.30
